Location: Antist
(43.1184°N, 0.1270°E)
Time: 17:20:05
(UTC+00:00)

STARLINK-1071 - Pass Details

Date: 19 January 2020
Orbit: 345 x 354 km, 53.0° (Epoch: 26 February)

Event Time Altitude Azimuth Distance (km) Brightness Sun altitude
Rises 18:07:05 0° 257° (WSW) 2,174 8.7 -13.2°
Reaches altitude 10° 18:09:14 10° 268° (W) 1,332 6.9 -13.6°
Maximum altitude 18:11:56 31° 334° (NNW) 664 4.1 -14.1°
Enters shadow 18:13:23 20° 22° (NNE) 912 4.4 -14.3°
